BLKT04 YPED-YPED

Flight info

Callsign BLKT04
Flight time N/A
Altitude 32000
Route DOLVU W142 AD A585 AREPA H54 KAMBI Q32 SUPAS/N0465F340 Q32 NODEV Q10 MALUP Q158 PH/N0457F330 H18 HIDOT/N0457F350 H18 BURGU Y135 DADRU Y39 ATNAR
Aircraft P8/M-SADE2E3FGHIRWZ/LB1

Departure

Time 2026-04-27 03:00
Airport RAAF Base Edinburgh (YPED)

Arrival

Time N/A
Airport RAAF Base Edinburgh (YPED)
Time Latitude Longitude Altitude Speed Heading
2026-04-27 02:57 -34.71405 138.62015 61 ft 8 kts 220°
2026-04-27 02:57 -34.71446 138.61973 58 ft 0 kts 221°
2026-04-27 02:57 -34.71462 138.61955 61 ft 10 kts 221°
2026-04-27 02:58 -34.71554 138.61855 61 ft 24 kts 222°
2026-04-27 02:58 -34.71689 138.61706 60 ft 14 kts 222°
2026-04-27 02:58 -34.71746 138.61613 56 ft 14 kts 250°
2026-04-27 02:58 -34.71747 138.61502 60 ft 13 kts 278°
2026-04-27 02:59 -34.71755 138.61400 60 ft 13 kts 222°
2026-04-27 02:59 -34.71834 138.61367 63 ft 12 kts 234°
2026-04-27 02:59 -34.71817 138.61330 60 ft 2 kts 11°
2026-04-27 02:59 -34.71804 138.61333 63 ft 10 kts 11°
2026-04-27 03:00 -34.71462 138.61396 63 ft 89 kts
2026-04-27 03:00 -34.70601 138.61549 65 ft 157 kts
2026-04-27 03:00 -34.69335 138.61779 239 ft 202 kts
2026-04-27 03:00 -34.67907 138.61982 1049 ft 208 kts 356°
2026-04-27 03:01 -34.66478 138.61611 1855 ft 221 kts 347°
2026-04-27 03:01 -34.64915 138.61157 2371 ft 235 kts 348°
2026-04-27 03:01 -34.63310 138.60715 3118 ft 237 kts 349°
2026-04-27 03:01 -34.61671 138.60283 3749 ft 248 kts 349°
2026-04-27 03:02 -34.59979 138.59894 4500 ft 254 kts 359°
2026-04-27 03:02 -34.58287 138.60506 5231 ft 261 kts 34°
2026-04-27 03:02 -34.57075 138.62174 6017 ft 269 kts 61°
2026-04-27 03:02 -34.56560 138.64391 6746 ft 280 kts 85°
2026-04-27 03:03 -34.56855 138.66706 7456 ft 285 kts 112°
2026-04-27 03:03 -34.59765 138.69669 9174 ft 282 kts 172°
2026-04-27 03:03 -34.61701 138.69419 10021 ft 284 kts 201°
2026-04-27 03:04 -34.63490 138.68292 10491 ft 299 kts 208°
2026-04-27 03:04 -34.65354 138.66950 10650 ft 323 kts 209°
2026-04-27 03:04 -34.67358 138.65523 10816 ft 345 kts 208°
2026-04-27 03:04 -34.69506 138.64028 11047 ft 363 kts 208°
2026-04-27 03:05 -34.71766 138.62584 11547 ft 370 kts 202°
2026-04-27 03:05 -34.74141 138.61470 12202 ft 372 kts 198°
2026-04-27 03:05 -34.76601 138.60457 13006 ft 368 kts 197°
2026-04-27 03:05 -34.78993 138.59469 14160 ft 357 kts 198°
2026-04-27 03:06 -34.81295 138.58479 15165 ft 347 kts 198°
2026-04-27 03:06 -34.83574 138.57474 15851 ft 349 kts 199°
2026-04-27 03:06 -34.85874 138.56449 16429 ft 354 kts 199°
2026-04-27 03:06 -34.88117 138.55176 17006 ft 359 kts 214°
2026-04-27 03:07 -34.89879 138.53003 17624 ft 364 kts 236°
2026-04-27 03:07 -34.90889 138.50171 18255 ft 369 kts 257°
2026-04-27 03:07 -34.90987 138.47073 18793 ft 375 kts 278°
2026-04-27 03:07 -34.90141 138.44049 19289 ft 381 kts 299°
2026-04-27 03:08 -34.88716 138.41315 19827 ft 385 kts 302°
2026-04-27 03:08 -34.87210 138.38633 20319 ft 389 kts 303°
2026-04-27 03:08 -34.85656 138.35912 20815 ft 393 kts 303°
2026-04-27 03:08 -34.84094 138.33168 21335 ft 395 kts 303°
2026-04-27 03:09 -34.82530 138.30397 21838 ft 398 kts 302°
2026-04-27 03:09 -34.80962 138.27596 22328 ft 401 kts 302°
2026-04-27 03:09 -34.79390 138.24773 22813 ft 404 kts 302°
2026-04-27 03:09 -34.77800 138.21910 23289 ft 408 kts 302°
2026-04-27 03:10 -34.76210 138.19043 23765 ft 411 kts 302°
2026-04-27 03:10 -34.74622 138.16182 24182 ft 413 kts 302°
2026-04-27 03:10 -34.73010 138.13280 24630 ft 414 kts 302°
2026-04-27 03:10 -34.71395 138.10376 25080 ft 415 kts 302°
2026-04-27 03:11 -34.69774 138.07462 25517 ft 417 kts 302°
2026-04-27 03:11 -34.68140 138.04527 25932 ft 419 kts 302°
2026-04-27 03:11 -34.66523 138.01627 26339 ft 420 kts 302°
2026-04-27 03:11 -34.64875 137.98672 26751 ft 422 kts 302°
2026-04-27 03:12 -34.63225 137.95716 27160 ft 424 kts 301°
2026-04-27 03:12 -34.61560 137.92735 27559 ft 425 kts 301°
2026-04-27 03:12 -34.59896 137.89759 27948 ft 427 kts 301°
2026-04-27 03:12 -34.58329 137.86740 28307 ft 427 kts 295°
2026-04-27 03:13 -34.57138 137.83437 28678 ft 426 kts 286°
2026-04-27 03:13 -34.56404 137.79963 29067 ft 424 kts 279°
2026-04-27 03:13 -34.55832 137.76444 29442 ft 425 kts 278°
2026-04-27 03:13 -34.55285 137.72943 29785 ft 427 kts 278°
2026-04-27 03:14 -34.54729 137.69385 30098 ft 429 kts 278°
2026-04-27 03:14 -34.54166 137.65829 30418 ft 431 kts 278°
2026-04-27 03:14 -34.53590 137.62252 30686 ft 432 kts 279°
2026-04-27 03:14 -34.53004 137.58663 30938 ft 434 kts 279°
2026-04-27 03:15 -34.52412 137.55074 31193 ft 435 kts 279°
2026-04-27 03:15 -34.51810 137.51454 31447 ft 436 kts 279°
2026-04-27 03:15 -34.51208 137.47842 31676 ft 438 kts 279°
2026-04-27 03:15 -34.50602 137.44217 31903 ft 439 kts 279°
2026-04-27 03:16 -34.49993 137.40581 32129 ft 441 kts 279°
2026-04-27 03:16 -34.49387 137.36972 32334 ft 442 kts 279°
2026-04-27 03:16 -34.48771 137.33307 32544 ft 443 kts 279°
2026-04-27 03:16 -34.48154 137.29638 32743 ft 445 kts 279°
2026-04-27 03:17 -34.47532 137.25954 32972 ft 445 kts 279°
2026-04-27 03:17 -34.46911 137.22279 33265 ft 443 kts 279°
2026-04-27 03:17 -34.46295 137.18643 33243 ft 448 kts 279°
2026-04-27 03:18 -34.45036 137.11225 33265 ft 447 kts 279°
2026-04-27 03:18 -34.43788 137.03906 33275 ft 444 kts 279°
2026-04-27 03:19 -34.42532 136.96568 33273 ft 442 kts 279°
2026-04-27 03:19 -34.41288 136.89322 33280 ft 441 kts 279°
2026-04-27 03:20 -34.40035 136.82052 33281 ft 440 kts 279°
2026-04-27 03:20 -34.38776 136.74775 33280 ft 441 kts 279°
2026-04-27 03:21 -34.37520 136.67538 33281 ft 442 kts 280°
2026-04-27 03:21 -34.36247 136.60232 33286 ft 444 kts 280°
2026-04-27 03:22 -34.34966 136.52912 33280 ft 445 kts 280°
2026-04-27 03:22 -34.33677 136.45572 33286 ft 446 kts 280°
2026-04-27 03:23 -34.32385 136.38240 33283 ft 447 kts 280°
2026-04-27 03:23 -34.31081 136.30866 33281 ft 447 kts 280°
2026-04-27 03:24 -34.29781 136.23546 33281 ft 447 kts 280°
2026-04-27 03:24 -34.28466 136.16166 33283 ft 447 kts 280°
2026-04-27 03:25 -34.27160 136.08864 33287 ft 446 kts 280°
2026-04-27 03:25 -34.25843 136.01526 33277 ft 446 kts 280°
2026-04-27 03:26 -34.24522 135.94193 33279 ft 445 kts 281°
2026-04-27 03:26 -34.23208 135.86926 33289 ft 444 kts 280°
2026-04-27 03:27 -34.21881 135.79615 33271 ft 444 kts 280°
2026-04-27 03:27 -34.20555 135.72329 33279 ft 444 kts 281°
2026-04-27 03:28 -34.19229 135.65074 33282 ft 444 kts 281°
2026-04-27 03:28 -34.17891 135.57777 33270 ft 444 kts 280°
2026-04-27 03:29 -34.16557 135.50523 33272 ft 445 kts 281°
2026-04-27 03:29 -34.15207 135.43211 33275 ft 445 kts 280°
2026-04-27 03:30 -34.13852 135.35896 33260 ft 446 kts 280°
2026-04-27 03:30 -34.13126 135.28553 33279 ft 443 kts 271°
2026-04-27 03:31 -34.12794 135.21105 33275 ft 444 kts 271°
2026-04-27 03:31 -34.12459 135.13657 33268 ft 444 kts 271°
2026-04-27 03:32 -34.12094 135.06228 33281 ft 445 kts 271°
2026-04-27 03:32 -34.11709 134.98759 33272 ft 445 kts 271°
2026-04-27 03:33 -34.11315 134.91288 33275 ft 446 kts 271°
2026-04-27 03:33 -34.10918 134.83848 33279 ft 446 kts 271°
2026-04-27 03:34 -34.10516 134.76367 33273 ft 446 kts 271°
2026-04-27 03:34 -34.10111 134.68932 33276 ft 446 kts 271°
2026-04-27 03:35 -34.09699 134.61445 33279 ft 447 kts 270°
2026-04-27 03:35 -34.09283 134.53958 33277 ft 447 kts 270°
2026-04-27 03:36 -34.08864 134.46513 33279 ft 447 kts 270°
2026-04-27 03:36 -34.08438 134.39020 33277 ft 447 kts 270°
2026-04-27 03:37 -34.08008 134.31530 33278 ft 447 kts 270°
2026-04-27 03:37 -34.07646 134.25297 33278 ft 448 kts 270°
2026-04-27 03:38 -34.07134 134.16560 33275 ft 448 kts 270°
2026-04-27 03:38 -34.06765 134.10329 33276 ft 448 kts 270°
2026-04-27 03:39 -34.06316 134.02814 33272 ft 448 kts 270°
2026-04-27 03:39 -34.05862 133.95308 33273 ft 448 kts 270°
2026-04-27 03:40 -34.05407 133.87855 33276 ft 448 kts 270°
2026-04-27 03:40 -34.04944 133.80344 33274 ft 448 kts 270°
2026-04-27 03:41 -34.04478 133.72857 33273 ft 448 kts 270°
2026-04-27 03:41 -34.04009 133.65402 33271 ft 447 kts 270°
2026-04-27 03:42 -34.03534 133.57912 33273 ft 447 kts 270°
2026-04-27 03:42 -34.03057 133.50476 33276 ft 446 kts 270°
2026-04-27 03:43 -34.02574 133.43014 33271 ft 446 kts 270°
2026-04-27 03:43 -34.02087 133.35559 33271 ft 445 kts 270°
2026-04-27 03:44 -34.01597 133.28119 33272 ft 445 kts 270°
2026-04-27 03:44 -34.01105 133.20735 33273 ft 444 kts 270°
2026-04-27 03:45 -34.00606 133.13299 33270 ft 444 kts 270°
2026-04-27 03:45 -34.00103 133.05878 33272 ft 443 kts 270°
2026-04-27 03:46 -33.99600 132.98512 33268 ft 443 kts 270°
2026-04-27 03:46 -33.99088 132.91094 33270 ft 443 kts 270°
2026-04-27 03:47 -33.98577 132.83742 33277 ft 442 kts 271°
2026-04-27 03:47 -33.98058 132.76345 33272 ft 442 kts 271°
2026-04-27 03:48 -33.97537 132.68993 33261 ft 442 kts 271°
2026-04-27 03:48 -33.97010 132.61607 33270 ft 442 kts 271°
2026-04-27 03:49 -33.96479 132.54229 33269 ft 441 kts 271°
2026-04-27 03:49 -33.95944 132.46861 33270 ft 441 kts 271°
2026-04-27 03:50 -33.95408 132.39528 33258 ft 441 kts 271°
2026-04-27 03:50 -33.94864 132.32157 33266 ft 441 kts 271°
2026-04-27 03:51 -33.94315 132.24783 33270 ft 441 kts 271°
2026-04-27 03:51 -33.93764 132.17444 33261 ft 441 kts 271°
2026-04-27 03:52 -33.93207 132.10073 33264 ft 441 kts 271°
2026-04-27 03:52 -33.92645 132.02703 33250 ft 441 kts 272°
2026-04-27 03:53 -33.92083 131.95383 33266 ft 441 kts 272°
2026-04-27 03:53 -33.91513 131.88021 33269 ft 441 kts 272°
2026-04-27 03:54 -33.90938 131.80653 33259 ft 440 kts 272°
2026-04-27 03:54 -33.90364 131.73352 33257 ft 440 kts 272°
2026-04-27 03:55 -33.89782 131.66000 33259 ft 439 kts 272°
2026-04-27 03:55 -33.89200 131.58711 33244 ft 439 kts 272°
2026-04-27 03:56 -33.88611 131.51377 33257 ft 438 kts 273°
2026-04-27 03:56 -33.88019 131.44116 33256 ft 438 kts 273°
2026-04-27 03:57 -33.87413 131.36814 33253 ft 437 kts 273°
2026-04-27 03:57 -33.86809 131.29565 33253 ft 437 kts 273°
2026-04-27 03:58 -33.86197 131.22279 33250 ft 436 kts 273°
2026-04-27 03:58 -33.85584 131.15013 33251 ft 436 kts 273°
2026-04-27 03:59 -33.84970 131.07792 33249 ft 435 kts 274°
2026-04-27 03:59 -33.84351 131.00559 33250 ft 435 kts 274°
2026-04-27 04:00 -33.83727 130.93315 33248 ft 434 kts 274°
2026-04-27 04:00 -33.83102 130.86119 33245 ft 434 kts 274°
2026-04-27 04:01 -33.82471 130.78892 33251 ft 434 kts 274°
2026-04-27 04:01 -33.81838 130.71703 33247 ft 434 kts 274°
2026-04-27 04:02 -33.81198 130.64477 33244 ft 434 kts 274°
2026-04-27 04:02 -33.80558 130.57298 33243 ft 434 kts 274°
2026-04-27 04:03 -33.79910 130.50077 33239 ft 434 kts 274°
2026-04-27 04:03 -33.79257 130.42849 33246 ft 434 kts 274°
2026-04-27 04:04 -33.78602 130.35656 33250 ft 435 kts 274°
2026-04-27 04:04 -33.77940 130.28418 33243 ft 435 kts 274°
2026-04-27 04:05 -33.77272 130.21179 33243 ft 435 kts 275°
2026-04-27 04:05 -33.76605 130.13981 33247 ft 435 kts 275°
2026-04-27 04:06 -33.75929 130.06742 33243 ft 435 kts 275°
2026-04-27 04:06 -33.75253 129.99545 33239 ft 435 kts 275°
2026-04-27 04:07 -33.74227 129.88716 33234 ft 434 kts 275°
2026-04-27 04:07 -33.73540 129.81513 33241 ft 433 kts 275°
2026-04-27 04:08 -33.72853 129.74357 33237 ft 433 kts 275°
2026-04-27 04:08 -33.72158 129.67168 33242 ft 432 kts 275°
2026-04-27 04:09 -33.71463 129.60016 33236 ft 432 kts 275°
2026-04-27 04:09 -33.70761 129.52836 33237 ft 432 kts 275°
2026-04-27 04:10 -33.70054 129.45660 33237 ft 431 kts 275°
2026-04-27 04:10 -33.69349 129.38533 33240 ft 431 kts 276°
2026-04-27 04:11 -33.68636 129.31376 33234 ft 431 kts 276°
2026-04-27 04:11 -33.67920 129.24228 33235 ft 431 kts 276°
2026-04-27 04:12 -33.67202 129.17105 33234 ft 431 kts 276°
2026-04-27 04:12 -33.66477 129.09954 33230 ft 431 kts 276°
2026-04-27 04:13 -33.65749 129.02807 33234 ft 430 kts 276°
2026-04-27 04:13 -33.65021 128.95706 33227 ft 430 kts 276°
2026-04-27 04:14 -33.64285 128.88571 33225 ft 430 kts 276°
2026-04-27 04:14 -33.63545 128.81444 33225 ft 429 kts 276°
2026-04-27 04:15 -33.62808 128.74377 33225 ft 429 kts 276°
2026-04-27 04:15 -33.62063 128.67271 33226 ft 429 kts 276°
2026-04-27 04:16 -33.61313 128.60163 33220 ft 429 kts 277°
2026-04-27 04:16 -33.60563 128.53094 33223 ft 429 kts 277°
2026-04-27 04:17 -33.59805 128.45989 33220 ft 429 kts 277°
2026-04-27 04:17 -33.59042 128.38870 33221 ft 429 kts 277°
2026-04-27 04:18 -33.58278 128.31785 33224 ft 430 kts 277°
2026-04-27 04:18 -33.57504 128.24651 33221 ft 431 kts 277°
2026-04-27 04:19 -33.56730 128.17549 33217 ft 432 kts 277°
2026-04-27 04:19 -33.55944 128.10373 33219 ft 433 kts 277°
2026-04-27 04:20 -33.55152 128.03185 33214 ft 434 kts 278°
2026-04-27 04:20 -33.54361 127.96022 33215 ft 435 kts 278°
2026-04-27 04:21 -33.53567 127.88819 33213 ft 436 kts 278°
2026-04-27 04:21 -33.52772 127.81638 33216 ft 437 kts 278°
2026-04-27 04:22 -33.51968 127.74407 33212 ft 437 kts 278°
2026-04-27 04:22 -33.51163 127.67216 33211 ft 436 kts 278°
2026-04-27 04:23 -33.50351 127.59996 33210 ft 436 kts 278°
2026-04-27 04:23 -33.49537 127.52802 33209 ft 435 kts 277°
2026-04-27 04:24 -33.48724 127.45647 33206 ft 432 kts 277°
2026-04-27 04:24 -33.48053 127.39776 33200 ft 424 kts 278°
2026-04-27 04:25 -33.47122 127.31672 33205 ft 420 kts 278°
2026-04-27 04:25 -33.46456 127.25898 33205 ft 419 kts 278°
2026-04-27 04:26 -33.45653 127.18978 33202 ft 418 kts 278°
2026-04-27 04:26 -33.44854 127.12115 33203 ft 418 kts 278°
2026-04-27 04:27 -33.44046 127.05213 33205 ft 418 kts 278°
2026-04-27 04:27 -33.43233 126.98307 33206 ft 418 kts 278°
2026-04-27 04:28 -33.42421 126.91440 33205 ft 419 kts 278°
2026-04-27 04:28 -33.41597 126.84504 33201 ft 420 kts 278°
2026-04-27 04:29 -33.40766 126.77546 33198 ft 422 kts 278°
2026-04-27 04:29 -33.39936 126.70625 33200 ft 423 kts 278°
2026-04-27 04:30 -33.39093 126.63636 33192 ft 424 kts 278°
2026-04-27 04:30 -33.38251 126.56686 33195 ft 424 kts 278°
2026-04-27 04:31 -33.37400 126.49695 33197 ft 426 kts 278°
2026-04-27 04:31 -33.36533 126.42604 33389 ft 433 kts 279°
2026-04-27 04:32 -33.36093 126.39026 33624 ft 433 kts 279°
2026-04-27 04:32 -33.35655 126.35460 33923 ft 432 kts 279°
2026-04-27 04:32 -33.35224 126.31967 34206 ft 429 kts 279°
2026-04-27 04:32 -33.34785 126.28416 34170 ft 431 kts 279°
2026-04-27 04:33 -33.33911 126.21369 34191 ft 421 kts 278°
2026-04-27 04:33 -33.33060 126.14544 34189 ft 411 kts 278°
2026-04-27 04:34 -33.32218 126.07822 34192 ft 411 kts 279°
2026-04-27 04:34 -33.31364 126.01034 34193 ft 412 kts 279°
2026-04-27 04:35 -33.30510 125.94279 34197 ft 414 kts 279°
2026-04-27 04:35 -33.29643 125.87450 34193 ft 416 kts 279°
2026-04-27 04:36 -33.28768 125.80584 34187 ft 418 kts 279°
2026-04-27 04:36 -33.27884 125.73683 34184 ft 420 kts 279°
2026-04-27 04:37 -33.26999 125.66800 34179 ft 422 kts 279°
2026-04-27 04:37 -33.26101 125.59857 34180 ft 422 kts 279°
2026-04-27 04:38 -33.25200 125.52912 34182 ft 422 kts 279°
2026-04-27 04:38 -33.24295 125.45974 34177 ft 422 kts 279°
2026-04-27 04:39 -33.23394 125.39096 34172 ft 420 kts 279°
2026-04-27 04:39 -33.22486 125.32190 34177 ft 419 kts 279°
2026-04-27 04:40 -33.21583 125.25356 34170 ft 418 kts 280°
2026-04-27 04:40 -33.20673 125.18495 34166 ft 417 kts 280°
2026-04-27 04:41 -33.19760 125.11648 34170 ft 417 kts 280°
2026-04-27 04:41 -33.18851 125.04849 34165 ft 416 kts 280°
2026-04-27 04:42 -33.17931 124.98011 34167 ft 416 kts 280°
2026-04-27 04:42 -33.17005 124.91225 34159 ft 415 kts 280°
2026-04-27 04:43 -33.16071 124.84416 34160 ft 415 kts 281°
2026-04-27 04:43 -33.15136 124.77618 34152 ft 415 kts 281°
2026-04-27 04:44 -33.14198 124.70824 34150 ft 415 kts 281°
2026-04-27 04:44 -33.13256 124.64026 34160 ft 414 kts 281°
2026-04-27 04:45 -33.12317 124.57277 34162 ft 414 kts 281°
2026-04-27 04:45 -33.11370 124.50499 34145 ft 414 kts 281°
2026-04-27 04:46 -33.10424 124.43750 34144 ft 414 kts 281°
2026-04-27 04:46 -33.09470 124.36977 34141 ft 413 kts 281°
2026-04-27 04:47 -33.08511 124.30201 34141 ft 413 kts 281°
2026-04-27 04:47 -33.07557 124.23478 34139 ft 413 kts 282°
2026-04-27 04:48 -33.06592 124.16713 34143 ft 413 kts 282°
2026-04-27 04:48 -33.05623 124.09940 34141 ft 413 kts 282°
2026-04-27 04:49 -33.04658 124.03223 34135 ft 413 kts 282°
2026-04-27 04:49 -33.03680 123.96446 34132 ft 413 kts 282°
2026-04-27 04:50 -33.02706 123.89718 34138 ft 414 kts 282°
2026-04-27 04:50 -33.01722 123.82951 34129 ft 414 kts 282°
2026-04-27 04:51 -33.00733 123.76183 34136 ft 414 kts 282°
2026-04-27 04:51 -32.99747 123.69449 34132 ft 415 kts 282°
2026-04-27 04:52 -32.98749 123.62669 34130 ft 415 kts 282°
2026-04-27 04:52 -32.97747 123.55881 34127 ft 416 kts 282°
2026-04-27 04:53 -32.96746 123.49134 34128 ft 417 kts 282°
2026-04-27 04:53 -32.95732 123.42322 34127 ft 417 kts 282°
2026-04-27 04:54 -32.94712 123.35492 34129 ft 418 kts 282°
2026-04-27 04:54 -32.93692 123.28696 34120 ft 419 kts 282°
2026-04-27 04:55 -32.92661 123.21846 34121 ft 420 kts 282°
2026-04-27 04:55 -32.91629 123.15020 34123 ft 421 kts 282°
2026-04-27 04:56 -32.90587 123.08155 34122 ft 421 kts 282°
2026-04-27 04:56 -32.89539 123.01274 34116 ft 422 kts 282°
2026-04-27 04:57 -32.88489 122.94402 34121 ft 422 kts 282°
2026-04-27 04:57 -32.87439 122.87561 34120 ft 422 kts 283°
2026-04-27 04:58 -32.86380 122.80686 34116 ft 422 kts 283°
2026-04-27 04:58 -32.85317 122.73815 34114 ft 421 kts 283°
2026-04-27 04:59 -32.84260 122.67004 34115 ft 420 kts 283°
2026-04-27 04:59 -32.83192 122.60149 34109 ft 420 kts 283°
2026-04-27 05:00 -32.82124 122.53321 34115 ft 419 kts 283°
2026-04-27 05:00 -32.81060 122.46543 34108 ft 419 kts 283°
2026-04-27 05:01 -32.79987 122.39730 34106 ft 418 kts 283°
2026-04-27 05:01 -32.78919 122.32972 34105 ft 417 kts 283°
2026-04-27 05:02 -32.77844 122.26201 34098 ft 416 kts 283°
2026-04-27 05:03 -32.76234 122.16099 34099 ft 415 kts 284°
2026-04-27 05:03 -32.75157 122.09370 34098 ft 414 kts 284°
2026-04-27 05:04 -32.74077 122.02647 34106 ft 413 kts 284°
2026-04-27 05:04 -32.72998 121.95958 34099 ft 412 kts 284°
2026-04-27 05:05 -32.71926 121.89325 34089 ft 411 kts 284°
2026-04-27 05:05 -32.71017 121.82599 34092 ft 412 kts 281°
2026-04-27 05:06 -32.70336 121.75838 34090 ft 412 kts 281°
2026-04-27 05:06 -32.69666 121.69079 34087 ft 412 kts 281°
2026-04-27 05:07 -32.68979 121.62353 34082 ft 412 kts 281°
2026-04-27 05:07 -32.68274 121.55584 34080 ft 413 kts 281°
2026-04-27 05:08 -32.67566 121.48846 34073 ft 413 kts 281°
2026-04-27 05:08 -32.66849 121.42068 34076 ft 414 kts 281°
2026-04-27 05:09 -32.66125 121.35253 34070 ft 416 kts 281°
2026-04-27 05:09 -32.65394 121.28416 34068 ft 417 kts 281°
2026-04-27 05:10 -32.64662 121.21594 34067 ft 419 kts 281°
2026-04-27 05:10 -32.63919 121.14711 34066 ft 420 kts 281°
2026-04-27 05:11 -32.63177 121.07867 34061 ft 421 kts 281°
2026-04-27 05:11 -32.62425 121.00970 34065 ft 422 kts 281°
2026-04-27 05:12 -32.61786 120.95219 33965 ft 421 kts 276°
2026-04-27 05:12 -32.61027 120.88461 34047 ft 407 kts 274°
2026-04-27 05:13 -32.60307 120.81839 34064 ft 406 kts 274°
2026-04-27 05:13 -32.59577 120.75196 34057 ft 405 kts 274°
2026-04-27 05:14 -32.58838 120.68559 34061 ft 405 kts 274°
2026-04-27 05:14 -32.58095 120.61935 34057 ft 406 kts 274°
2026-04-27 05:15 -32.57347 120.55299 34059 ft 406 kts 274°
2026-04-27 05:15 -32.56596 120.48676 34052 ft 408 kts 274°
2026-04-27 05:16 -32.55837 120.42005 34061 ft 408 kts 275°
2026-04-27 05:16 -32.55074 120.35345 34060 ft 409 kts 275°
2026-04-27 05:17 -32.54305 120.28656 34053 ft 410 kts 275°
2026-04-27 05:17 -32.53531 120.21952 34056 ft 410 kts 275°
2026-04-27 05:18 -32.52756 120.15280 34069 ft 410 kts 275°
2026-04-27 05:18 -32.51972 120.08557 34047 ft 412 kts 275°
2026-04-27 05:19 -32.51187 120.01857 34065 ft 412 kts 275°
2026-04-27 05:19 -32.50397 119.95139 34050 ft 411 kts 276°
2026-04-27 05:20 -32.49603 119.88422 34048 ft 410 kts 276°
2026-04-27 05:20 -32.48814 119.81786 34050 ft 409 kts 276°
2026-04-27 05:21 -32.48014 119.75122 34055 ft 408 kts 276°
2026-04-27 05:21 -32.47210 119.68464 34050 ft 407 kts 276°
2026-04-27 05:22 -32.46404 119.61815 34045 ft 407 kts 276°
2026-04-27 05:22 -32.45599 119.55198 34062 ft 408 kts 276°
2026-04-27 05:23 -32.44785 119.48531 34046 ft 408 kts 276°
2026-04-27 05:23 -32.43971 119.41905 34046 ft 409 kts 276°
2026-04-27 05:24 -32.43149 119.35237 34042 ft 409 kts 277°
2026-04-27 05:24 -32.42321 119.28544 34041 ft 410 kts 277°
2026-04-27 05:25 -32.41495 119.21905 34039 ft 411 kts 277°
2026-04-27 05:25 -32.40657 119.15200 34037 ft 411 kts 277°
2026-04-27 05:26 -32.39814 119.08482 34029 ft 412 kts 277°
2026-04-27 05:26 -32.38972 119.01801 34034 ft 412 kts 277°
2026-04-27 05:27 -32.38121 118.95077 34037 ft 412 kts 278°
2026-04-27 05:27 -32.37271 118.88387 34026 ft 413 kts 278°
2026-04-27 05:28 -32.36412 118.81658 34030 ft 413 kts 278°
2026-04-27 05:28 -32.35549 118.74932 34023 ft 413 kts 278°
2026-04-27 05:29 -32.34690 118.68251 34026 ft 414 kts 279°
2026-04-27 05:29 -32.33838 118.61515 34021 ft 414 kts 277°
2026-04-27 05:30 -32.33826 118.54694 34030 ft 415 kts 269°
2026-04-27 05:30 -32.34077 118.47893 34033 ft 415 kts 269°
2026-04-27 05:31 -32.34308 118.41059 34027 ft 416 kts 270°
2026-04-27 05:31 -32.34520 118.34256 34025 ft 416 kts 270°
2026-04-27 05:32 -32.35329 118.27483 34027 ft 423 kts 249°
2026-04-27 05:32 -32.38508 118.21529 34028 ft 431 kts 238°
2026-04-27 05:33 -32.42143 118.15835 34030 ft 433 kts 237°
2026-04-27 05:33 -32.45808 118.10200 34022 ft 435 kts 237°
2026-04-27 05:34 -32.49559 118.04504 34082 ft 443 kts 238°
2026-04-27 05:34 -32.53453 117.98745 34031 ft 456 kts 237°
2026-04-27 05:35 -32.57469 117.92832 34018 ft 459 kts 237°
2026-04-27 05:35 -32.61470 117.86971 34019 ft 459 kts 237°
2026-04-27 05:36 -32.65442 117.81023 33996 ft 453 kts 245°
2026-04-27 05:36 -32.66690 117.77668 34035 ft 437 kts 261°
2026-04-27 05:36 -32.67303 117.74196 34022 ft 432 kts 266°
2026-04-27 05:37 -32.67735 117.67154 34030 ft 421 kts 281°
2026-04-27 05:37 -32.66692 117.60389 34027 ft 416 kts 288°
2026-04-27 05:38 -32.65184 117.53755 34021 ft 416 kts 289°
2026-04-27 05:38 -32.63603 117.47134 34016 ft 415 kts 290°
2026-04-27 05:39 -32.61979 117.40604 34010 ft 413 kts 295°
2026-04-27 05:39 -32.59192 117.34703 34022 ft 408 kts 308°
2026-04-27 05:40 -32.55351 117.29810 34028 ft 406 kts 318°
2026-04-27 05:40 -32.51157 117.25350 34026 ft 406 kts 318°
2026-04-27 05:41 -32.46937 117.20863 34014 ft 408 kts 318°
2026-04-27 05:41 -32.42734 117.16363 34013 ft 405 kts 318°
2026-04-27 05:41 -32.40683 117.14161 33753 ft 397 kts 318°
2026-04-27 05:42 -32.38638 117.11966 33075 ft 398 kts 318°
2026-04-27 05:42 -32.36578 117.09757 32216 ft 402 kts 318°
2026-04-27 05:42 -32.34488 117.07517 31329 ft 408 kts 317°
2026-04-27 05:42 -32.32372 117.05250 30482 ft 412 kts 317°
2026-04-27 05:43 -32.30239 117.02967 29566 ft 415 kts 317°
2026-04-27 05:43 -32.28085 117.00662 28607 ft 417 kts 317°
2026-04-27 05:43 -32.25948 116.98377 27832 ft 416 kts 317°
2026-04-27 05:43 -32.23844 116.96130 27750 ft 399 kts 317°
2026-04-27 05:44 -32.21819 116.93970 27637 ft 384 kts 317°
2026-04-27 05:44 -32.20003 116.91733 27343 ft 374 kts 308°
2026-04-27 05:44 -32.18557 116.89189 26830 ft 372 kts 301°
2026-04-27 05:44 -32.17364 116.86479 26270 ft 372 kts 296°
2026-04-27 05:45 -32.16469 116.83615 25734 ft 372 kts 290°
2026-04-27 05:45 -32.15751 116.80739 25285 ft 368 kts 289°
2026-04-27 05:45 -32.15045 116.77839 24804 ft 365 kts 289°
2026-04-27 05:45 -32.14349 116.74970 24335 ft 363 kts 289°
2026-04-27 05:46 -32.13651 116.72120 23876 ft 360 kts 289°
2026-04-27 05:46 -32.12956 116.69288 23394 ft 357 kts 289°
2026-04-27 05:46 -32.12263 116.66478 22831 ft 355 kts 289°
2026-04-27 05:46 -32.11573 116.63686 22298 ft 352 kts 289°
2026-04-27 05:47 -32.10895 116.60956 21787 ft 350 kts 289°
2026-04-27 05:47 -32.10211 116.58203 21278 ft 348 kts 289°
2026-04-27 05:47 -32.09529 116.55471 20753 ft 346 kts 288°
2026-04-27 05:47 -32.08848 116.52747 20257 ft 345 kts 288°
2026-04-27 05:48 -32.08171 116.50045 19785 ft 343 kts 288°
2026-04-27 05:48 -32.07496 116.47347 19305 ft 341 kts 288°
2026-04-27 05:48 -32.06834 116.44700 18885 ft 340 kts 288°
2026-04-27 05:48 -32.06166 116.42032 18447 ft 339 kts 288°
2026-04-27 05:49 -32.05498 116.39368 17980 ft 338 kts 288°
2026-04-27 05:49 -32.04831 116.36712 17516 ft 335 kts 288°
2026-04-27 05:49 -32.04179 116.34118 17065 ft 332 kts 288°
2026-04-27 05:49 -32.03525 116.31519 16602 ft 329 kts 287°
2026-04-27 05:50 -32.02874 116.28936 16145 ft 326 kts 287°
2026-04-27 05:50 -32.02228 116.26372 15700 ft 324 kts 287°
2026-04-27 05:50 -32.01594 116.23859 15294 ft 321 kts 287°
2026-04-27 05:50 -32.00960 116.21350 14879 ft 319 kts 287°
2026-04-27 05:51 -32.00329 116.18857 14461 ft 316 kts 287°
2026-04-27 05:51 -31.99701 116.16374 14059 ft 314 kts 287°
2026-04-27 05:51 -31.99077 116.13913 13616 ft 312 kts 286°
2026-04-27 05:51 -31.98470 116.11500 13149 ft 309 kts 284°
2026-04-27 05:52 -31.98329 116.08950 12637 ft 311 kts 262°
2026-04-27 05:52 -31.99101 116.06569 12176 ft 317 kts 240°
2026-04-27 05:52 -32.00641 116.04736 11741 ft 325 kts 218°
2026-04-27 05:52 -32.02756 116.03742 11487 ft 329 kts 195°
2026-04-27 05:53 -32.04986 116.03447 11401 ft 314 kts 189°
2026-04-27 05:53 -32.07089 116.03119 11083 ft 295 kts 206°
2026-04-27 05:53 -32.08766 116.01923 10551 ft 280 kts 231°
2026-04-27 05:53 -32.09836 116.00075 10022 ft 270 kts 251°
2026-04-27 05:54 -32.10336 115.97968 9462 ft 264 kts 266°
2026-04-27 05:54 -32.10256 115.95828 8909 ft 260 kts 282°
2026-04-27 05:54 -32.09852 115.93759 8411 ft 258 kts 284°
2026-04-27 05:54 -32.09416 115.91735 7915 ft 257 kts 285°
2026-04-27 05:55 -32.08968 115.89690 7427 ft 255 kts 285°
2026-04-27 05:55 -32.08527 115.87664 6944 ft 254 kts 285°
2026-04-27 05:55 -32.08092 115.85650 6463 ft 253 kts 284°
2026-04-27 05:55 -32.07658 115.83635 5979 ft 251 kts 284°
2026-04-27 05:56 -32.07237 115.81669 5501 ft 250 kts 284°
2026-04-27 05:56 -32.06813 115.79688 5005 ft 249 kts 284°
2026-04-27 05:56 -32.06389 115.77703 4479 ft 249 kts 284°
2026-04-27 05:56 -32.05961 115.75700 3873 ft 253 kts 285°
2026-04-27 05:57 -32.05485 115.73720 3412 ft 250 kts 291°
2026-04-27 05:57 -32.04975 115.71785 2983 ft 245 kts 285°
2026-04-27 05:57 -32.04595 115.69844 2687 ft 238 kts 282°
2026-04-27 05:57 -32.04233 115.67947 2564 ft 240 kts 283°
2026-04-27 05:58 -32.03846 115.65988 2545 ft 247 kts 283°
2026-04-27 05:58 -32.03448 115.64031 2494 ft 244 kts 283°
2026-04-27 05:58 -32.03049 115.62116 2198 ft 244 kts 283°
2026-04-27 05:58 -32.02629 115.60138 1661 ft 253 kts 281°
2026-04-27 05:59 -32.02196 115.58101 1212 ft 258 kts 281°
2026-04-27 05:59 -32.01752 115.56034 1123 ft 262 kts 281°
2026-04-27 05:59 -32.01319 115.53947 1034 ft 262 kts 277°
2026-04-27 05:59 -32.01181 115.51825 996 ft 257 kts 266°
2026-04-27 06:00 -32.01294 115.47652 979 ft 255 kts 265°
2026-04-27 06:00 -32.01362 115.45591 992 ft 255 kts 264°
2026-04-27 06:00 -32.01430 115.43499 1007 ft 256 kts 265°
2026-04-27 06:01 -32.01493 115.41385 1006 ft 260 kts 265°
2026-04-27 06:01 -32.01553 115.39255 948 ft 256 kts 265°
2026-04-27 06:01 -32.01610 115.37160 826 ft 255 kts 264°
2026-04-27 06:01 -32.01664 115.35101 968 ft 250 kts 265°
2026-04-27 06:02 -32.01718 115.33054 982 ft 252 kts 265°
2026-04-27 06:02 -32.01772 115.30989 1004 ft 254 kts 264°
2026-04-27 06:02 -32.01827 115.28891 1002 ft 257 kts 265°
2026-04-27 06:02 -32.01863 115.27489 1003 ft 259 kts 264°
2026-04-27 06:03 -32.01918 115.25357 992 ft 260 kts 266°
2026-04-27 06:03 -32.01971 115.23231 999 ft 258 kts 264°
2026-04-27 06:03 -32.02024 115.21113 986 ft 258 kts 266°
2026-04-27 06:03 -32.02074 115.19005 992 ft 256 kts 265°
2026-04-27 06:04 -32.02125 115.16901 999 ft 256 kts 266°
2026-04-27 06:04 -32.02175 115.14822 1015 ft 259 kts 265°
2026-04-27 06:04 -32.02228 115.12681 997 ft 264 kts 266°
2026-04-27 06:04 -32.02279 115.10514 996 ft 261 kts 265°
2026-04-27 06:05 -32.02329 115.08379 974 ft 258 kts 265°
2026-04-27 06:05 -32.02378 115.06283 988 ft 254 kts 265°
2026-04-27 06:05 -32.02427 115.04227 990 ft 254 kts 264°
2026-04-27 06:05 -32.02486 115.02136 985 ft 257 kts 264°
2026-04-27 06:06 -32.02550 115.00011 1007 ft 260 kts 264°
2026-04-27 06:06 -32.02617 114.97867 979 ft 263 kts 265°
2026-04-27 06:06 -32.02682 114.95713 1004 ft 262 kts 264°
2026-04-27 06:06 -32.02747 114.93560 983 ft 263 kts 264°
2026-04-27 06:07 -32.02811 114.91414 1003 ft 261 kts 264°
2026-04-27 06:07 -32.02873 114.89300 980 ft 261 kts 264°
2026-04-27 06:07 -32.02935 114.87169 995 ft 260 kts 264°
2026-04-27 06:07 -32.02998 114.85034 993 ft 260 kts 264°
2026-04-27 06:08 -32.03059 114.82898 997 ft 260 kts 265°
2026-04-27 06:08 -32.03121 114.80772 990 ft 260 kts 265°
2026-04-27 06:08 -32.03182 114.78642 985 ft 259 kts 265°
2026-04-27 06:08 -32.03242 114.76524 1006 ft 259 kts 264°
2026-04-27 06:09 -32.03302 114.74393 992 ft 261 kts 265°
2026-04-27 06:09 -32.03362 114.72285 988 ft 260 kts 264°
2026-04-27 06:09 -32.03420 114.70165 988 ft 259 kts 265°
2026-04-27 06:09 -32.03479 114.68050 985 ft 257 kts 264°
2026-04-27 06:10 -32.03538 114.65947 993 ft 256 kts 264°
2026-04-27 06:10 -32.03596 114.63842 982 ft 256 kts 264°
2026-04-27 06:10 -32.03653 114.61750 992 ft 255 kts 264°
2026-04-27 06:10 -32.03708 114.59677 988 ft 255 kts 264°
2026-04-27 06:11 -32.03765 114.57581 999 ft 255 kts 265°
2026-04-27 06:11 -32.03822 114.55483 993 ft 256 kts 264°
2026-04-27 06:11 -32.03878 114.53386 996 ft 256 kts 265°
2026-04-27 06:11 -32.03934 114.51281 1002 ft 258 kts 265°
2026-04-27 06:12 -32.04007 114.49179 991 ft 259 kts 259°
2026-04-27 06:12 -32.04636 114.47244 1001 ft 252 kts 230°
2026-04-27 06:12 -32.05966 114.45958 989 ft 247 kts 201°
2026-04-27 06:12 -32.07616 114.45476 993 ft 245 kts 180°
2026-04-27 06:13 -32.09206 114.46050 1011 ft 243 kts 143°
2026-04-27 06:13 -32.10256 114.47619 1006 ft 248 kts 115°
2026-04-27 06:13 -32.10649 114.49575 1001 ft 252 kts 94°
2026-04-27 06:13 -32.10622 114.51655 997 ft 254 kts 90°
2026-04-27 06:14 -32.10536 114.53728 1000 ft 252 kts 89°
2026-04-27 06:14 -32.10443 114.55801 996 ft 253 kts 90°
2026-04-27 06:14 -32.10353 114.57870 977 ft 251 kts 89°
2026-04-27 06:14 -32.10268 114.59885 1004 ft 249 kts 90°
2026-04-27 06:15 -32.10186 114.61927 987 ft 248 kts 90°
2026-04-27 06:15 -32.10106 114.63957 983 ft 247 kts 91°
2026-04-27 06:15 -32.10027 114.65982 991 ft 245 kts 90°
2026-04-27 06:15 -32.09951 114.67998 997 ft 247 kts 91°
2026-04-27 06:16 -32.09874 114.70023 1001 ft 251 kts 91°
2026-04-27 06:16 -32.09797 114.72091 998 ft 253 kts 90°
2026-04-27 06:16 -32.09720 114.74168 1000 ft 253 kts 91°
2026-04-27 06:16 -32.09641 114.76239 987 ft 253 kts 90°
2026-04-27 06:17 -32.09562 114.78320 1001 ft 253 kts 90°
2026-04-27 06:17 -32.09483 114.80400 990 ft 252 kts 90°
2026-04-27 06:17 -32.09405 114.82465 1001 ft 252 kts 90°
2026-04-27 06:17 -32.09327 114.84510 984 ft 252 kts 90°
2026-04-27 06:18 -32.09249 114.86579 996 ft 251 kts 90°
2026-04-27 06:18 -32.09170 114.88629 984 ft 250 kts 90°
2026-04-27 06:18 -32.09091 114.90673 997 ft 248 kts 90°
2026-04-27 06:18 -32.09014 114.92691 983 ft 248 kts 90°
2026-04-27 06:19 -32.08935 114.94719 1004 ft 247 kts 90°
2026-04-27 06:19 -32.08856 114.96749 1002 ft 248 kts 90°
2026-04-27 06:19 -32.08776 114.98784 993 ft 248 kts 90°
2026-04-27 06:19 -32.08704 115.00820 994 ft 248 kts 95°
2026-04-27 06:20 -32.09124 115.02719 988 ft 242 kts 123°
2026-04-27 06:20 -32.10284 115.04112 1001 ft 238 kts 150°
2026-04-27 06:20 -32.11841 115.04766 992 ft 240 kts 174°
2026-04-27 06:20 -32.13461 115.04370 992 ft 243 kts 207°
2026-04-27 06:21 -32.14699 115.03013 994 ft 248 kts 234°
2026-04-27 06:21 -32.15330 115.01122 988 ft 256 kts 258°
2026-04-27 06:21 -32.15472 114.99014 1000 ft 258 kts 264°
2026-04-27 06:21 -32.15531 114.96889 985 ft 257 kts 265°
2026-04-27 06:22 -32.15578 114.94777 996 ft 256 kts 265°
2026-04-27 06:22 -32.15624 114.92703 987 ft 255 kts 265°
2026-04-27 06:22 -32.15675 114.90601 999 ft 255 kts 265°
2026-04-27 06:22 -32.15728 114.88511 993 ft 255 kts 265°
2026-04-27 06:23 -32.15784 114.86416 994 ft 255 kts 265°
2026-04-27 06:23 -32.15842 114.84339 994 ft 256 kts 264°
2026-04-27 06:23 -32.15901 114.82226 997 ft 256 kts 265°
2026-04-27 06:23 -32.15961 114.80124 1001 ft 257 kts 265°
2026-04-27 06:24 -32.16023 114.78016 991 ft 258 kts 265°
2026-04-27 06:24 -32.16083 114.75894 1001 ft 259 kts 265°
2026-04-27 06:24 -32.16144 114.73755 998 ft 261 kts 265°
2026-04-27 06:24 -32.16205 114.71633 1001 ft 263 kts 265°
2026-04-27 06:25 -32.16267 114.69464 985 ft 262 kts 265°
2026-04-27 06:25 -32.16327 114.67320 995 ft 260 kts 265°
2026-04-27 06:25 -32.16386 114.65185 989 ft 259 kts 265°
2026-04-27 06:25 -32.16444 114.63097 997 ft 256 kts 265°
2026-04-27 06:26 -32.16503 114.61002 985 ft 255 kts 265°
2026-04-27 06:26 -32.16561 114.58921 999 ft 253 kts 264°
2026-04-27 06:26 -32.16618 114.56848 976 ft 253 kts 265°
2026-04-27 06:26 -32.16676 114.54763 996 ft 255 kts 265°
2026-04-27 06:27 -32.16733 114.52661 984 ft 258 kts 265°
2026-04-27 06:27 -32.16792 114.50524 1000 ft 262 kts 265°
2026-04-27 06:27 -32.17148 114.48473 979 ft 250 kts 239°
2026-04-27 06:27 -32.18245 114.46947 998 ft 242 kts 212°
2026-04-27 06:28 -32.19744 114.46155 989 ft 240 kts 191°
2026-04-27 06:28 -32.21394 114.46234 991 ft 240 kts 158°
2026-04-27 06:28 -32.22724 114.47417 1011 ft 245 kts 128°
2026-04-27 06:28 -32.23407 114.49277 1000 ft 252 kts 102°
2026-04-27 06:29 -32.23505 114.51349 998 ft 253 kts 91°
2026-04-27 06:29 -32.23434 114.53419 998 ft 251 kts 89°
2026-04-27 06:29 -32.23333 114.55463 986 ft 249 kts 90°
2026-04-27 06:29 -32.23233 114.57481 988 ft 248 kts 90°
2026-04-27 06:30 -32.23137 114.59518 996 ft 248 kts 90°
2026-04-27 06:30 -32.23048 114.61564 990 ft 248 kts 90°
2026-04-27 06:30 -32.22961 114.63606 1000 ft 248 kts 90°
2026-04-27 06:30 -32.22878 114.65614 989 ft 247 kts 89°
2026-04-27 06:31 -32.22798 114.67651 998 ft 249 kts 90°
2026-04-27 06:31 -32.22718 114.69708 1008 ft 251 kts 90°
2026-04-27 06:31 -32.22638 114.71781 1006 ft 252 kts 91°
2026-04-27 06:31 -32.22557 114.73865 1019 ft 253 kts 90°
2026-04-27 06:32 -32.22478 114.75922 988 ft 254 kts 90°
2026-04-27 06:32 -32.22398 114.77991 988 ft 252 kts 90°
2026-04-27 06:32 -32.22318 114.80056 987 ft 249 kts 90°
2026-04-27 06:32 -32.22239 114.82099 982 ft 249 kts 91°
2026-04-27 06:33 -32.22160 114.84156 1018 ft 252 kts 90°
2026-04-27 06:33 -32.22078 114.86235 1001 ft 252 kts 90°
2026-04-27 06:33 -32.21998 114.88273 985 ft 251 kts 90°
2026-04-27 06:33 -32.21918 114.90320 1014 ft 248 kts 90°
2026-04-27 06:34 -32.21837 114.92370 990 ft 249 kts 90°
2026-04-27 06:34 -32.21758 114.94413 1000 ft 249 kts 90°
2026-04-27 06:34 -32.21677 114.96439 991 ft 251 kts 91°
2026-04-27 06:34 -32.21595 114.98507 998 ft 252 kts 91°
2026-04-27 06:35 -32.21512 115.00581 992 ft 253 kts 90°
2026-04-27 06:35 -32.21664 115.02599 972 ft 247 kts 113°
2026-04-27 06:35 -32.22595 115.04247 1004 ft 241 kts 141°
2026-04-27 06:35 -32.24040 115.05220 998 ft 241 kts 163°
2026-04-27 06:36 -32.25697 115.05321 979 ft 243 kts 195°
2026-04-27 06:36 -32.27117 115.04260 996 ft 247 kts 226°
2026-04-27 06:36 -32.27975 115.02478 994 ft 255 kts 251°
2026-04-27 06:36 -32.28223 115.00380 1002 ft 261 kts 264°
2026-04-27 06:37 -32.28299 114.98232 1003 ft 261 kts 265°
2026-04-27 06:37 -32.28348 114.96079 1003 ft 261 kts 265°
2026-04-27 06:37 -32.28396 114.93964 981 ft 258 kts 265°
2026-04-27 06:37 -32.28446 114.91859 999 ft 254 kts 265°
2026-04-27 06:38 -32.28500 114.89775 987 ft 253 kts 265°
2026-04-27 06:38 -32.28556 114.87715 1005 ft 255 kts 265°
2026-04-27 06:38 -32.28616 114.85606 986 ft 258 kts 265°
2026-04-27 06:38 -32.28677 114.83479 1000 ft 258 kts 265°
2026-04-27 06:39 -32.28739 114.81353 983 ft 259 kts 265°
2026-04-27 06:39 -32.28801 114.79253 996 ft 259 kts 266°
2026-04-27 06:39 -32.28862 114.77124 991 ft 259 kts 265°
2026-04-27 06:39 -32.28925 114.74987 993 ft 259 kts 265°
2026-04-27 06:40 -32.28988 114.72851 1006 ft 260 kts 265°
2026-04-27 06:40 -32.29050 114.70741 994 ft 261 kts 266°
2026-04-27 06:40 -32.29112 114.68595 999 ft 261 kts 265°
2026-04-27 06:40 -32.29174 114.66448 986 ft 261 kts 265°
2026-04-27 06:41 -32.29236 114.64306 1001 ft 260 kts 265°
2026-04-27 06:41 -32.29296 114.62169 1003 ft 260 kts 265°
2026-04-27 06:41 -32.29357 114.60058 992 ft 259 kts 264°
2026-04-27 06:41 -32.29417 114.57940 991 ft 258 kts 265°
2026-04-27 06:42 -32.29477 114.55823 990 ft 255 kts 265°
2026-04-27 06:42 -32.29534 114.53723 997 ft 253 kts 264°
2026-04-27 06:42 -32.29592 114.51647 994 ft 253 kts 265°
2026-04-27 06:42 -32.29727 114.49600 977 ft 251 kts 251°
2026-04-27 06:43 -32.30567 114.47849 1008 ft 244 kts 222°
2026-04-27 06:43 -32.32011 114.46814 1004 ft 243 kts 196°
2026-04-27 06:43 -32.33667 114.46644 993 ft 245 kts 167°
2026-04-27 06:43 -32.35166 114.47568 1010 ft 247 kts 137°
2026-04-27 06:44 -32.36082 114.49281 989 ft 249 kts 110°
2026-04-27 06:44 -32.36315 114.51310 1006 ft 250 kts 93°
2026-04-27 06:44 -32.36270 114.53376 994 ft 250 kts 89°
2026-04-27 06:44 -32.36174 114.55401 997 ft 248 kts 89°
2026-04-27 06:45 -32.36071 114.57441 988 ft 247 kts 90°
2026-04-27 06:45 -32.35974 114.59480 1003 ft 249 kts 89°
2026-04-27 06:45 -32.35881 114.61552 995 ft 255 kts 90°
2026-04-27 06:45 -32.35791 114.63651 994 ft 256 kts 90°
2026-04-27 06:46 -32.35704 114.65724 1003 ft 254 kts 90°
2026-04-27 06:46 -32.35619 114.67804 985 ft 250 kts 91°
2026-04-27 06:46 -32.35537 114.69849 993 ft 249 kts 90°
2026-04-27 06:46 -32.35456 114.71885 1003 ft 247 kts 90°
2026-04-27 06:47 -32.35375 114.73932 998 ft 252 kts 91°
2026-04-27 06:47 -32.35295 114.76007 1006 ft 252 kts 90°
2026-04-27 06:47 -32.35214 114.78088 987 ft 253 kts 90°
2026-04-27 06:47 -32.35133 114.80128 1003 ft 251 kts 90°
2026-04-27 06:48 -32.35053 114.82179 987 ft 249 kts 90°
2026-04-27 06:48 -32.34971 114.84228 997 ft 248 kts 89°
2026-04-27 06:48 -32.34890 114.86267 1000 ft 248 kts 90°
2026-04-27 06:48 -32.34809 114.88304 990 ft 248 kts 90°
2026-04-27 06:49 -32.34727 114.90349 1003 ft 249 kts 91°
2026-04-27 06:49 -32.34646 114.92398 1003 ft 253 kts 90°
2026-04-27 06:49 -32.34562 114.94483 1006 ft 254 kts 90°
2026-04-27 06:49 -32.34478 114.96569 988 ft 253 kts 90°
2026-04-27 06:50 -32.34394 114.98648 999 ft 251 kts 90°
2026-04-27 06:50 -32.34309 115.00708 996 ft 250 kts 91°
2026-04-27 06:50 -32.34306 115.02757 983 ft 248 kts 103°
2026-04-27 06:50 -32.34689 115.04010 989 ft 242 kts 123°
2026-04-27 06:51 -32.36322 115.05700 1010 ft 238 kts 158°
2026-04-27 06:51 -32.37949 115.06056 991 ft 241 kts 186°
2026-04-27 06:51 -32.39506 115.05343 993 ft 245 kts 215°
2026-04-27 06:51 -32.40576 115.03767 1000 ft 250 kts 243°
2026-04-27 06:52 -32.40903 115.02447 996 ft 253 kts 258°
2026-04-27 06:52 -32.41063 115.00365 1010 ft 256 kts 264°
2026-04-27 06:52 -32.41135 114.97559 988 ft 256 kts 265°
2026-04-27 06:52 -32.41163 114.96131 1000 ft 256 kts 265°
2026-04-27 06:53 -32.41207 114.94044 994 ft 257 kts 266°
2026-04-27 06:53 -32.41256 114.91921 997 ft 258 kts 265°
2026-04-27 06:53 -32.41329 114.89105 1000 ft 258 kts 264°
2026-04-27 06:53 -32.41387 114.86987 997 ft 258 kts 265°
2026-04-27 06:54 -32.41426 114.85577 994 ft 258 kts 264°
2026-04-27 06:54 -32.41487 114.83463 990 ft 255 kts 264°
2026-04-27 06:54 -32.41549 114.81356 995 ft 256 kts 265°
2026-04-27 06:54 -32.41612 114.79253 1006 ft 255 kts 264°
2026-04-27 06:55 -32.41675 114.77142 988 ft 256 kts 264°
2026-04-27 06:55 -32.41738 114.75050 990 ft 257 kts 265°
2026-04-27 06:55 -32.41801 114.72940 999 ft 257 kts 266°
2026-04-27 06:55 -32.41864 114.70824 980 ft 257 kts 265°
2026-04-27 06:56 -32.41927 114.68711 996 ft 257 kts 265°
2026-04-27 06:56 -32.41990 114.66586 1004 ft 258 kts 265°
2026-04-27 06:56 -32.42052 114.64482 1009 ft 260 kts 265°
2026-04-27 06:56 -32.42115 114.62333 996 ft 261 kts 266°
2026-04-27 06:57 -32.42178 114.60171 997 ft 264 kts 265°
2026-04-27 06:57 -32.42240 114.58016 989 ft 261 kts 265°
2026-04-27 06:57 -32.42301 114.55874 994 ft 258 kts 266°
2026-04-27 06:57 -32.42361 114.53746 994 ft 257 kts 264°
2026-04-27 06:58 -32.42421 114.51648 1008 ft 254 kts 265°
2026-04-27 06:58 -32.43780 114.48068 983 ft 241 kts 212°
2026-04-27 06:58 -32.45280 114.47291 997 ft 241 kts 189°
2026-04-27 06:59 -32.46950 114.47276 986 ft 242 kts 165°
2026-04-27 06:59 -32.48419 114.48233 992 ft 245 kts 136°
2026-04-27 06:59 -32.49346 114.49916 1008 ft 248 kts 112°
2026-04-27 06:59 -32.49597 114.51953 1004 ft 252 kts 92°
2026-04-27 07:00 -32.49546 114.54016 1010 ft 254 kts 90°
2026-04-27 07:00 -32.49455 114.56108 1007 ft 254 kts 90°
2026-04-27 07:00 -32.49358 114.58200 990 ft 253 kts 89°
2026-04-27 07:00 -32.49265 114.60271 1004 ft 250 kts 90°
2026-04-27 07:01 -32.49175 114.62326 990 ft 248 kts 89°
2026-04-27 07:01 -32.49089 114.64376 999 ft 250 kts 90°
2026-04-27 07:01 -32.49004 114.66438 995 ft 252 kts 90°
2026-04-27 07:01 -32.48920 114.68518 1001 ft 253 kts 90°
2026-04-27 07:02 -32.48837 114.70568 1006 ft 250 kts 90°
2026-04-27 07:02 -32.48755 114.72625 1003 ft 249 kts 89°
2026-04-27 07:02 -32.48673 114.74669 1004 ft 247 kts 90°
2026-04-27 07:02 -32.48591 114.76709 1011 ft 247 kts 90°
2026-04-27 07:03 -32.48511 114.78739 993 ft 248 kts 89°
2026-04-27 07:03 -32.48429 114.80777 1010 ft 247 kts 90°
2026-04-27 07:03 -32.48348 114.82798 1002 ft 248 kts 90°
2026-04-27 07:03 -32.48265 114.84845 1009 ft 249 kts 89°
2026-04-27 07:04 -32.48183 114.86917 1002 ft 253 kts 89°
2026-04-27 07:04 -32.48098 114.89014 1015 ft 255 kts 90°
2026-04-27 07:04 -32.48013 114.91090 1009 ft 254 kts 90°
2026-04-27 07:04 -32.47927 114.93173 1005 ft 252 kts 90°
2026-04-27 07:05 -32.47842 114.95238 1000 ft 248 kts 90°
2026-04-27 07:05 -32.47759 114.97276 1005 ft 246 kts 90°
2026-04-27 07:05 -32.47676 114.99277 996 ft 245 kts 90°
2026-04-27 07:05 -32.47592 115.01298 1004 ft 248 kts 91°
2026-04-27 07:06 -32.47507 115.03346 1015 ft 249 kts 91°
2026-04-27 07:06 -32.47383 115.05396 998 ft 251 kts 81°
2026-04-27 07:06 -32.46728 115.07328 1018 ft 255 kts 61°
2026-04-27 07:06 -32.45489 115.08879 1088 ft 264 kts 43°
2026-04-27 07:07 -32.44069 115.10269 1859 ft 269 kts 41°
2026-04-27 07:07 -32.42635 115.11659 3112 ft 265 kts 41°
2026-04-27 07:07 -32.41188 115.13076 4089 ft 271 kts 39°
2026-04-27 07:07 -32.39720 115.14527 5039 ft 276 kts 39°
2026-04-27 07:08 -32.38240 115.16000 5992 ft 281 kts 39°
2026-04-27 07:08 -32.36727 115.17517 6839 ft 287 kts 39°
2026-04-27 07:08 -32.35220 115.19036 7751 ft 289 kts 38°
2026-04-27 07:08 -32.33683 115.20588 8638 ft 293 kts 37°
2026-04-27 07:09 -32.32107 115.22179 9487 ft 299 kts 37°
2026-04-27 07:09 -32.30517 115.23787 10315 ft 303 kts 36°
2026-04-27 07:09 -32.28902 115.25422 11117 ft 307 kts 36°
2026-04-27 07:09 -32.27269 115.27075 11910 ft 311 kts 36°
2026-04-27 07:10 -32.25614 115.28750 12732 ft 315 kts 35°
2026-04-27 07:10 -32.23937 115.30448 13547 ft 319 kts 35°
2026-04-27 07:10 -32.22238 115.32167 14297 ft 323 kts 34°
2026-04-27 07:10 -32.20546 115.33880 15064 ft 325 kts 34°
2026-04-27 07:11 -32.18819 115.35628 15839 ft 327 kts 33°
2026-04-27 07:11 -32.17089 115.37377 16590 ft 329 kts 33°
2026-04-27 07:11 -32.15355 115.39181 17325 ft 336 kts 39°
2026-04-27 07:11 -32.13939 115.41479 17838 ft 360 kts 56°
2026-04-27 07:12 -32.12862 115.44225 18006 ft 384 kts 61°
2026-04-27 07:12 -32.11824 115.47205 18370 ft 398 kts 63°
2026-04-27 07:12 -32.10790 115.50263 18936 ft 402 kts 63°
2026-04-27 07:12 -32.09745 115.53334 19633 ft 403 kts 62°
2026-04-27 07:13 -32.08682 115.56407 20302 ft 405 kts 62°
2026-04-27 07:13 -32.07600 115.59485 20938 ft 408 kts 62°
2026-04-27 07:13 -32.06507 115.62557 21554 ft 410 kts 62°
2026-04-27 07:13 -32.05393 115.65672 22168 ft 413 kts 62°
2026-04-27 07:14 -32.04268 115.68805 22784 ft 416 kts 62°
2026-04-27 07:14 -32.03135 115.71956 23386 ft 419 kts 62°
2026-04-27 07:14 -32.01990 115.75142 23910 ft 422 kts 62°
2026-04-27 07:14 -32.00838 115.78342 24391 ft 426 kts 62°
2026-04-27 07:15 -31.99691 115.81528 24855 ft 429 kts 61°
2026-04-27 07:15 -31.98521 115.84777 25310 ft 432 kts 61°
2026-04-27 07:15 -31.97342 115.88048 25785 ft 435 kts 61°
2026-04-27 07:15 -31.96189 115.91363 26241 ft 441 kts 67°
2026-04-27 07:16 -31.95714 115.94992 26624 ft 458 kts 88°
2026-04-27 07:16 -31.96218 115.98686 27081 ft 467 kts 106°
2026-04-27 07:16 -31.97651 116.02142 27531 ft 472 kts 121°
2026-04-27 07:16 -31.99440 116.05424 27986 ft 476 kts 123°
2026-04-27 07:17 -32.01287 116.08676 28349 ft 480 kts 123°
2026-04-27 07:17 -32.03144 116.11937 28722 ft 484 kts 123°
2026-04-27 07:17 -32.05004 116.15251 29133 ft 487 kts 122°
2026-04-27 07:17 -32.06857 116.18607 29532 ft 489 kts 122°
2026-04-27 07:18 -32.08706 116.21998 29906 ft 492 kts 121°
2026-04-27 07:18 -32.10559 116.25418 30233 ft 495 kts 121°
2026-04-27 07:18 -32.12415 116.28854 30526 ft 498 kts 121°
2026-04-27 07:18 -32.14285 116.32317 30819 ft 500 kts 121°
2026-04-27 07:19 -32.16161 116.35792 31115 ft 502 kts 121°
2026-04-27 07:19 -32.18025 116.39242 31398 ft 504 kts 121°
2026-04-27 07:19 -32.19917 116.42748 31662 ft 507 kts 121°
2026-04-27 07:19 -32.21826 116.46289 31922 ft 509 kts 121°
2026-04-27 07:20 -32.23715 116.49831 32168 ft 511 kts 121°
2026-04-27 07:20 -32.25603 116.53404 32424 ft 513 kts 121°
2026-04-27 07:20 -32.27497 116.57002 32716 ft 515 kts 121°
2026-04-27 07:20 -32.29366 116.60559 33058 ft 514 kts 121°
2026-04-27 07:21 -32.31251 116.64143 33426 ft 512 kts 121°
2026-04-27 07:21 -32.33131 116.67719 33784 ft 511 kts 121°
2026-04-27 07:21 -32.35013 116.71297 34088 ft 510 kts 121°
2026-04-27 07:21 -32.36886 116.74862 34324 ft 510 kts 121°
2026-04-27 07:22 -32.38763 116.78437 34568 ft 510 kts 121°
2026-04-27 07:22 -32.40619 116.81974 34800 ft 510 kts 121°
2026-04-27 07:22 -32.42499 116.85563 35018 ft 510 kts 121°
2026-04-27 07:23 -32.46247 116.92725 35026 ft 511 kts 121°
2026-04-27 07:23 -32.49968 116.99852 35017 ft 509 kts 121°
2026-04-27 07:24 -32.53624 117.07029 35018 ft 507 kts 116°
2026-04-27 07:24 -32.56132 117.14785 35031 ft 502 kts 105°
2026-04-27 07:25 -32.58230 117.22627 35032 ft 502 kts 105°
2026-04-27 07:25 -32.60361 117.30518 35017 ft 502 kts 105°
2026-04-27 07:26 -32.62538 117.38421 35026 ft 503 kts 106°
2026-04-27 07:26 -32.64715 117.46271 35020 ft 504 kts 106°
2026-04-27 07:27 -32.66909 117.54199 35020 ft 506 kts 106°
2026-04-27 07:27 -32.69105 117.62172 35015 ft 507 kts 106°
2026-04-27 07:28 -32.71282 117.70099 35019 ft 508 kts 105°
2026-04-27 07:28 -32.73466 117.78079 35015 ft 508 kts 105°
2026-04-27 07:29 -32.75654 117.86093 35010 ft 508 kts 105°
2026-04-27 07:29 -32.77818 117.94041 35017 ft 507 kts 105°
2026-04-27 07:30 -32.79976 118.01987 35000 ft 506 kts 105°
2026-04-27 07:30 -32.82138 118.09971 35012 ft 505 kts 105°
2026-04-27 07:31 -32.84275 118.17889 35015 ft 504 kts 105°
2026-04-27 07:31 -32.86416 118.25842 35016 ft 503 kts 105°
2026-04-27 07:32 -32.88550 118.33790 35005 ft 503 kts 105°
2026-04-27 07:32 -32.90665 118.41693 35013 ft 502 kts 105°
2026-04-27 07:33 -32.92779 118.49613 35013 ft 501 kts 105°
2026-04-27 07:33 -32.94877 118.57494 35019 ft 501 kts 105°
2026-04-27 07:34 -32.96832 118.65458 35009 ft 498 kts 97°
2026-04-27 07:34 -32.97361 118.73550 35029 ft 491 kts 87°
2026-04-27 07:35 -32.97480 118.81693 35021 ft 492 kts 86°
2026-04-27 07:35 -32.97620 118.89850 35017 ft 493 kts 87°
2026-04-27 07:36 -32.97801 118.98023 35022 ft 493 kts 87°
2026-04-27 07:36 -32.97993 119.06138 35026 ft 493 kts 87°
2026-04-27 07:37 -32.98182 119.14309 35029 ft 493 kts 87°
2026-04-27 07:37 -32.98334 119.21105 35030 ft 493 kts 87°
2026-04-27 07:38 -32.98509 119.29288 35029 ft 493 kts 87°